Theta_e
363 358 358 360 356 355 355 355 361 364 363 363 364 365 365 360 360 361 358 357 354 346
362 361 359 365 362 358 359 357 361 363 363 364 365 365 363 358 360 358 358 354 352 345
360 362 362 362 362 362 361 363 363 364 363 362 364 364 363 359 360 358 353 349 347 345
358 359 362 360 362 363 364 365 364 366 365 363 361 362 362 361 359 357 354 349 345 343
359 360 359 360 360 363 364 367 366 366 365 364 363 362 360 358 356 356 353 349 345 342
356 358 358 360 361 362 364 365 365 365 364 364 363 361 360 359 357 356 354 350 345 342
357 358 358 360 363 361 366 366 366 365 365 364 363 361 359 358 358 357 353 350 346 343
361 362 363 362 364 363 365 366 369 368 365 364 362 358 359 358 357 356 353 350 346 342
362 364 363 364 364 368 364 365 370 369 367 365 359 345 344 354 356 356 352 347 344 342
364 363 365 365 365 365 364 366 368 367 367 368 367 339 340 344 355 354 352 349 344 338
368 366 367 363 363 363 363 364 365 365 368 367 365 334 334 340 352 349 343 342 341 341
362 366 367 364 365 362 361 363 363 366 367 366 358 328 329 336 337 333 330 330 331 330
357 358 360 366 366 369 366 363 364 364 366 353 359 325 327 335 337 331 329 330 327 328
356 357 357 362 368 369 367 364 358 355 358 355 347 334 324 327 336 334 333 331 325 326
Wind_Speed
15 11 11 12 9 9 9 10 10 12 11 11 10 9 8 7 7 7 7 7 6 5
15 15 13 12 12 9 9 7 10 12 12 12 10 10 9 8 7 6 7 6 6 6
16 15 14 13 13 12 10 10 11 12 12 12 11 10 10 8 8 7 6 5 5 6
16 16 15 14 14 14 13 13 13 13 13 13 13 12 11 10 7 9 7 6 7 8
15 14 15 15 15 15 14 14 14 14 15 15 14 13 13 13 10 11 10 9 8 7
16 16 17 16 16 16 15 15 15 14 15 14 15 15 14 14 13 12 10 9 10 9
14 15 15 15 15 17 16 16 16 15 15 15 15 15 15 15 14 13 13 13 13 12
11 11 11 12 13 15 16 16 16 16 16 16 16 13 16 16 15 15 14 14 12 12
11 12 13 13 14 14 15 15 15 17 18 19 15 16 17 17 16 16 15 14 13 12
8 10 12 11 14 15 16 16 17 16 17 17 18 19 23 23 16 15 15 13 12 11
2 7 11 12 13 14 14 15 15 16 17 17 14 12 13 16 10 3 3 5 8 8
6 6 7 8 10 11 13 14 15 14 15 16 11 15 20 17 8 11 12 12 9 9
5 6 7 7 7 8 11 11 10 12 13 15 12 19 24 21 12 15 13 17 19 22
5 6 6 7 6 9 10 10 9 10 9 10 14 19 31 29 16 10 7 8 10 12
Wind_Direction
212 215 214 206 220 210 207 204 194 199 203 207 202 210 203 214 223 207 224 232 256 272
205 217 209 213 208 211 218 201 194 199 203 203 202 205 200 233 210 204 221 218 236 252
199 207 214 203 207 213 205 217 188 201 204 206 205 205 207 215 203 211 216 235 225 258
200 200 207 209 206 210 204 200 200 201 204 207 208 206 208 232 217 213 214 223 215 231
204 205 202 212 211 210 211 203 206 202 205 206 210 209 210 216 215 215 215 213 219 227
201 202 207 207 213 207 210 210 210 208 210 210 209 209 211 215 216 211 217 217 218 221
215 210 215 213 210 212 204 210 210 210 211 213 213 211 210 208 212 210 211 210 212 214
226 225 224 230 222 219 216 213 212 206 208 212 215 213 209 210 209 210 214 212 211 215
212 221 227 222 223 222 227 224 222 218 206 205 213 197 187 208 209 211 213 209 208 220
212 245 235 232 234 230 225 226 226 223 227 224 216 186 181 188 209 212 210 213 208 208
6 258 244 238 240 238 236 230 231 229 225 228 226 170 175 201 192 101 80 7 343 302
342 313 298 276 249 238 235 235 234 232 228 225 212 148 139 140 161 133 146 138 160 100
349 334 329 308 273 248 234 238 242 241 229 213 191 153 153 165 179 179 193 194 154 171
344 339 348 332 297 267 247 231 230 241 217 181 172 182 174 181 186 217 240 192 163 163